DW9695 Weather Reports


Display with metric or nautical units.
time (UTC)temp
F
wind
direction
speed
MPH
gust
MPH
rain 1hr
in
rain 24hr
in
rain mn
in
humidity
%
barometer
mb
20260505124515 53 60 0.0 2.0 0.00 0.00 0.00 67 1008.4
20260505123010 53 42 1.0 3.0 0.00 0.00 0.00 70 1008.3
20260505121521 54 332 0.0 7.0 0.00 0.00 0.00 66 1008.2
20260505120005 56 36 2.0 5.0 0.00 0.00 0.00 63 1008.1
20260505114503 55 25 0.0 2.0 0.00 0.00 0.00 66 1007.9
20260505113117 55 63 2.0 5.0 0.00 0.00 0.00 65 1007.8
20260505111557 55 96 3.0 6.0 0.00 0.00 0.00 64 1007.6
20260505110105 56 36 1.0 4.0 0.00 0.00 0.00 62 1007.3
20260505101551 57 79 1.0 3.0 0.00 0.00 0.00 60 1006.9
20260505100048 57 59 1.0 4.0 0.00 0.00 0.00 60 1006.8
20260505094547 57 42 0.0 3.0 0.00 0.00 0.00 60 1006.8
20260505093053 57 44 2.0 6.0 0.00 0.00 0.00 61 1006.7
20260505091544 56 63 2.0 6.0 0.00 0.00 0.00 61 1006.6
20260505090046 57 86 0.0 4.0 0.00 0.00 0.00 60 1006.5
20260505084550 58 48 0.0 4.0 0.00 0.00 0.00 59 1006.4
20260505083043 58 53 0.0 4.0 0.00 0.00 0.00 58 1006.3
20260505081533 59 41 2.0 5.0 0.00 0.00 0.00 58 1006.1
20260505080041 60 25 1.0 5.0 0.00 0.00 0.00 57 1006.2
20260505074529 60 42 3.0 5.0 0.00 0.00 0.00 57 1006.2
20260505073034 61 32 1.0 4.0 0.00 0.00 0.00 57 1006.2
20260505071537 60 40 0.0 4.0 0.00 0.00 0.00 60 1006.0
20260505070024 60 51 3.0 7.0 0.00 0.00 0.00 61 1005.9
20260505064522 61 54 2.0 4.0 0.00 0.00 0.00 60 1005.8
20260505063022 62 41 3.0 6.0 0.00 0.00 0.00 58 1005.7
20260505061520 62 56 0.0 3.0 0.00 0.00 0.00 58 1005.7
20260505060030 62 42 1.0 5.0 0.00 0.00 0.00 60 1005.7
20260505054520 64 34 0.0 2.0 0.00 0.00 0.00 58 1005.4
20260505053026 63 42 0.0 3.0 0.00 0.00 0.00 60 1005.4
20260505051518 64 47 2.0 4.0 0.00 0.00 0.00 58 1005.2
20260505041516 69 34 0.0 1.0 0.00 0.00 0.00 52 1004.8
20260505040016 72 86 0.0 3.0 0.00 0.00 0.00 45 1004.7
20260505034515 73 91 3.0 5.0 0.00 0.00 0.00 44 1004.5
20260505033019 72 356 0.0 2.0 0.00 0.00 0.00 47 1004.3
20260505031514 75 82 1.0 4.0 0.00 0.00 0.00 40 1004.1
20260505030013 75 52 0.0 4.0 0.00 0.00 0.00 42 1004.0
20260505024513 74 40 1.0 4.0 0.00 0.00 0.00 42 1003.9
20260505023011 75 331 3.0 5.0 0.00 0.00 0.00 44 1003.7
20260505021513 78 317 3.0 4.0 0.00 0.00 0.00 38 1003.8
20260505020016 80 312 3.0 6.0 0.00 0.00 0.00 34 1003.8
20260505014508 82 331 6.0 10.0 0.00 0.00 0.00 30 1003.8
20260505013006 83 336 7.0 13.0 0.00 0.00 0.00 26 1003.9
20260505011504 84 359 5.0 10.0 0.00 0.00 0.00 27 1004.0
20260505010006 84 20 6.0 10.0 0.00 0.00 0.00 26 1004.1
20260505004510 85 323 6.0 11.0 0.00 0.00 0.00 25 1004.2
20260505003002 86 354 4.0 7.0 0.00 0.00 0.00 25 1004.1
20260505001502 86 347 4.0 11.0 0.00 0.00 0.00 24 1004.4
20260505000100 85 351 8.0 12.0 0.00 0.00 0.00 24 1004.4
20260504234558 85 315 5.0 8.0 0.00 0.00 0.00 21 1004.4
20260504233058 86 319 4.0 8.0 0.00 0.00 0.00 22 1004.3
20260504231558 85 312 5.0 10.0 0.00 0.00 0.00 21 1004.4
20260504230056 85 314 7.0 12.0 0.00 0.00 0.00 22 1004.6
20260504224555 86 315 8.0 14.0 0.00 0.00 0.00 22 1004.7
20260504223053 88 300 0.0 7.0 0.00 0.00 0.00 26 1004.7
20260504221552 87 316 1.0 6.0 0.00 0.00 0.00 22 1004.9
20260504220050 86 322 1.0 8.0 0.00 0.00 0.00 24 1005.1
20260504214555 87 309 0.0 7.0 0.00 0.00 0.00 25 1005.3
20260504213046 88 323 1.0 6.0 0.00 0.00 0.00 26 1005.5
20260504211543 85 17 5.0 9.0 0.00 0.00 0.00 27 1005.6
20260504210141 85 338 4.0 8.0 0.00 0.00 0.00 26 1005.8
20260504204556 85 51 0.0 5.0 0.00 0.00 0.00 26 1006.0
20260504203041 85 305 1.0 6.0 0.00 0.00 0.00 27 1006.1
20260504201636 85 305 0.0 5.0 0.00 0.00 0.00 29 1006.2
20260504200034 84 224 2.0 6.0 0.00 0.00 0.00 31 1006.4
20260504194533 84 278 0.0 6.0 0.00 0.00 0.00 28 1006.5
20260504193031 84 312 0.0 3.0 0.00 0.00 0.00 29 1006.6
20260504191528 82 27 0.0 6.0 0.00 0.00 0.00 28 1006.8
20260504190025 82 347 3.0 11.0 0.00 0.00 0.00 32 1007.0
20260504184523 80 335 3.0 7.0 0.00 0.00 0.00 34 1007.0
20260504183020 79 323 1.0 8.0 0.00 0.00 0.00 33 1007.0
20260504181518 79 25 4.0 12.0 0.00 0.00 0.00 39 1007.2
20260504180014 78 283 0.0 3.0 0.00 0.00 0.00 38 1007.1
20260504174511 75 270 0.0 4.0 0.00 0.00 0.00 41 1007.2
20260504173007 74 321 2.0 6.0 0.00 0.00 0.00 42 1007.3
20260504171504 73 318 2.0 5.0 0.00 0.00 0.00 42 1007.3